N327LD KSNA-KHHR

Flight info

Callsign N327LD
Flight time 0h 15m
Altitude 3000
Route SLI WELLZ
Aircraft LJ35/M-VGDW/C

Departure

Time 2026-04-21 02:47
Airport John Wayne Orange County International Airport (KSNA)

Arrival

Time 2026-04-21 03:02
Airport Jack Northrop Field Hawthorne Municipal Airport (KHHR)
Time Latitude Longitude Altitude Speed Heading
2026-04-21 02:33 33.67198 -117.86722 53 ft 0 kts 179°
2026-04-21 02:37 33.67182 -117.86722 50 ft 7 kts 179°
2026-04-21 02:37 33.67166 -117.86723 53 ft 4 kts 186°
2026-04-21 02:38 33.67144 -117.86757 49 ft 6 kts 287°
2026-04-21 02:38 33.67160 -117.86782 53 ft 0 kts 311°
2026-04-21 02:38 33.67161 -117.86782 53 ft 0 kts 310°
2026-04-21 02:38 33.67163 -117.86786 53 ft 1 kts 307°
2026-04-21 02:39 33.67175 -117.86809 54 ft 5 kts 298°
2026-04-21 02:39 33.67202 -117.86819 54 ft 6 kts 28°
2026-04-21 02:39 33.67234 -117.86799 56 ft 8 kts 28°
2026-04-21 02:39 33.67281 -117.86766 54 ft 9 kts 39°
2026-04-21 02:40 33.67320 -117.86713 55 ft 8 kts 47°
2026-04-21 02:40 33.67360 -117.86681 57 ft 8 kts 28°
2026-04-21 02:40 33.67425 -117.86640 57 ft 11 kts 27°
2026-04-21 02:40 33.67512 -117.86586 56 ft 14 kts 28°
2026-04-21 02:41 33.67598 -117.86531 55 ft 14 kts 28°
2026-04-21 02:41 33.67675 -117.86483 51 ft 11 kts 27°
2026-04-21 02:41 33.67743 -117.86439 50 ft 11 kts 28°
2026-04-21 02:41 33.67816 -117.86391 49 ft 12 kts 26°
2026-04-21 02:42 33.67864 -117.86362 48 ft 3 kts 27°
2026-04-21 02:42 33.67903 -117.86339 48 ft 9 kts 27°
2026-04-21 02:42 33.67959 -117.86305 47 ft 11 kts 27°
2026-04-21 02:42 33.68014 -117.86274 45 ft 9 kts 13°
2026-04-21 02:43 33.68065 -117.86308 45 ft 6 kts 298°
2026-04-21 02:43 33.68067 -117.86313 45 ft 0 kts 298°
2026-04-21 02:46 33.68074 -117.86327 45 ft 6 kts 298°
2026-04-21 02:46 33.68100 -117.86386 44 ft 8 kts 298°
2026-04-21 02:46 33.68137 -117.86471 42 ft 12 kts 297°
2026-04-21 02:46 33.68121 -117.86537 43 ft 0 kts 213°
2026-04-21 02:47 33.68075 -117.86566 44 ft 29 kts 208°
2026-04-21 02:47 33.67558 -117.86895 53 ft 146 kts 208°
2026-04-21 02:47 33.66396 -117.87559 796 ft 201 kts 198°
2026-04-21 02:47 33.65067 -117.87823 1349 ft 195 kts 187°
2026-04-21 02:48 33.63686 -117.88019 1412 ft 209 kts 188°
2026-04-21 02:48 33.62182 -117.88240 2014 ft 217 kts 188°
2026-04-21 02:48 33.60690 -117.88470 2977 ft 218 kts 188°
2026-04-21 02:48 33.59161 -117.88718 3016 ft 225 kts 188°
2026-04-21 02:49 33.57591 -117.88972 3014 ft 230 kts 188°
2026-04-21 02:49 33.56001 -117.89228 3013 ft 234 kts 188°
2026-04-21 02:49 33.54366 -117.89490 3014 ft 237 kts 188°
2026-04-21 02:49 33.52720 -117.89753 3012 ft 238 kts 188°
2026-04-21 02:50 33.51093 -117.90012 3012 ft 237 kts 187°
2026-04-21 02:50 33.49455 -117.90271 3014 ft 236 kts 187°
2026-04-21 02:50 33.47861 -117.90688 3001 ft 235 kts 205°
2026-04-21 02:50 33.46697 -117.92029 3045 ft 250 kts 244°
2026-04-21 02:51 33.46479 -117.94007 3805 ft 242 kts 277°
2026-04-21 02:51 33.47232 -117.95816 4312 ft 249 kts 313°
2026-04-21 02:51 33.48704 -117.96916 4825 ft 253 kts 335°
2026-04-21 02:51 33.50349 -117.97671 5281 ft 256 kts 339°
2026-04-21 02:52 33.52052 -117.98376 5735 ft 260 kts 340°
2026-04-21 02:52 33.53802 -117.99072 5907 ft 277 kts 341°
2026-04-21 02:52 33.55643 -117.99781 6449 ft 277 kts 341°
2026-04-21 02:52 33.57478 -118.00485 6829 ft 282 kts 341°
2026-04-21 02:53 33.59332 -118.01195 6999 ft 277 kts 341°
2026-04-21 02:53 33.61171 -118.01896 7002 ft 274 kts 341°
2026-04-21 02:53 33.62981 -118.02588 7004 ft 271 kts 341°
2026-04-21 02:53 33.64746 -118.03271 7002 ft 269 kts 341°
2026-04-21 02:54 33.66526 -118.03962 7000 ft 267 kts 341°
2026-04-21 02:54 33.68293 -118.04652 6996 ft 265 kts 341°
2026-04-21 02:54 33.70042 -118.05337 6990 ft 264 kts 341°
2026-04-21 02:54 33.71787 -118.06022 6988 ft 263 kts 341°
2026-04-21 02:55 33.73519 -118.06704 6994 ft 262 kts 340°
2026-04-21 02:55 33.75215 -118.07367 6947 ft 251 kts 340°
2026-04-21 02:55 33.76809 -118.07979 6944 ft 229 kts 340°
2026-04-21 02:55 33.78267 -118.08534 6944 ft 211 kts 340°
2026-04-21 02:56 33.79629 -118.09048 6937 ft 202 kts 340°
2026-04-21 02:56 33.82337 -118.10079 6949 ft 213 kts 340°
2026-04-21 02:56 33.83781 -118.10623 6948 ft 219 kts 343°
2026-04-21 02:57 33.85277 -118.10951 6944 ft 213 kts 351°
2026-04-21 02:57 33.86714 -118.11185 6705 ft 207 kts 351°
2026-04-21 02:57 33.88148 -118.11417 6289 ft 207 kts 351°
2026-04-21 02:57 33.89559 -118.11647 5913 ft 206 kts 351°
2026-04-21 02:58 33.90979 -118.11879 5524 ft 203 kts 351°
2026-04-21 02:58 33.92308 -118.12283 5114 ft 199 kts 327°
2026-04-21 02:58 33.93132 -118.13517 4679 ft 187 kts 284°
2026-04-21 02:58 33.93292 -118.15064 4148 ft 185 kts 270°
2026-04-21 02:59 33.93292 -118.16609 3625 ft 181 kts 264°
2026-04-21 02:59 33.93133 -118.18107 2848 ft 182 kts 260°
2026-04-21 02:59 33.92974 -118.19518 2699 ft 161 kts 263°
2026-04-21 02:59 33.92868 -118.20831 2424 ft 160 kts 264°
2026-04-21 03:00 33.92779 -118.22175 2043 ft 164 kts 266°
2026-04-21 03:00 33.92757 -118.23547 1704 ft 162 kts 267°
2026-04-21 03:00 33.92708 -118.24867 1435 ft 155 kts 265°
2026-04-21 03:00 33.92636 -118.26133 1219 ft 149 kts 265°
2026-04-21 03:01 33.92593 -118.27340 991 ft 138 kts 266°
2026-04-21 03:01 33.92539 -118.28449 781 ft 131 kts 266°
2026-04-21 03:01 33.92479 -118.29567 586 ft 136 kts 265°
2026-04-21 03:01 33.92424 -118.30711 401 ft 138 kts 266°
2026-04-21 03:02 33.92375 -118.31858 241 ft 137 kts 268°
2026-04-21 03:02 33.92312 -118.32960 68 ft 121 kts 268°
2026-04-21 03:02 33.92275 -118.33717 61 ft 59 kts 266°
2026-04-21 03:02 33.92261 -118.33966 64 ft 13 kts 261°
2026-04-21 03:03 33.92219 -118.33992 62 ft 0 kts 172°
2026-04-21 03:03 33.92212 -118.33993 65 ft 3 kts 201°
2026-04-21 03:03 33.92199 -118.33995 65 ft 2 kts 174°
2026-04-21 03:03 33.92197 -118.33994 61 ft 0 kts 176°